Total_Precipitation_Accumulation
0.70 0.69 0.70 0.65 0.64 0.66 0.71 0.82 1.04 0.92 0.57 0.41 0.41 0.43 0.51 0.57 0.57 0.54 0.52 0.62 0.67 0.73 0.81 0.85 0.93 1.12 1.46 2.00 2.59 3.46 4.04 3.66 2.86 2.31 2.22 2.51 2.91 3.34
0.76 0.76 0.72 0.68 0.71 0.74 0.78 0.78 0.85 0.98 0.78 0.43 0.39 0.41 0.50 0.63 0.71 0.62 0.57 0.69 0.70 0.71 0.73 0.75 0.81 0.96 1.19 1.52 1.95 2.51 3.36 3.80 3.55 3.02 2.58 2.65 2.86 3.21
0.79 0.80 0.76 0.73 0.81 0.84 0.89 0.88 0.84 0.87 0.90 0.54 0.43 0.47 0.61 0.71 0.76 0.71 0.70 0.67 0.66 0.71 0.72 0.75 0.78 0.87 1.04 1.26 1.49 1.85 2.48 3.21 3.62 3.63 3.27 2.96 2.89 2.94
0.83 0.84 0.84 0.81 0.84 0.88 0.96 0.96 0.88 0.82 0.89 0.75 0.58 0.62 0.70 0.78 0.81 0.78 0.78 0.75 0.66 0.68 0.68 0.77 0.81 0.86 0.97 1.12 1.28 1.50 1.87 2.40 2.95 3.36 3.44 3.11 2.93 2.97
0.81 0.86 0.90 0.90 0.86 0.86 0.97 1.02 0.96 0.90 0.92 0.92 0.73 0.67 0.75 0.85 0.97 0.96 0.91 0.89 0.78 0.73 0.72 0.78 0.83 0.83 0.89 1.02 1.18 1.33 1.50 1.68 2.06 2.66 3.23 3.28 3.05 3.01
0.74 0.75 0.85 0.98 0.99 1.01 1.06 1.05 1.07 1.11 1.09 1.07 0.92 0.82 0.87 0.94 1.08 1.14 1.10 1.02 0.95 0.84 0.85 0.87 0.89 0.89 0.85 0.85 0.90 1.02 1.20 1.47 1.77 2.22 2.69 3.08 3.10 3.03
0.73 0.68 0.78 1.02 1.20 1.36 1.43 1.32 1.33 1.45 1.42 1.36 1.23 1.08 0.99 1.05 1.14 1.13 1.17 1.09 1.07 1.00 0.94 0.94 0.88 0.84 0.79 0.77 0.79 0.83 0.94 1.15 1.42 1.76 2.17 2.52 2.82 2.98
0.81 0.71 0.77 1.00 1.14 1.26 1.39 1.38 1.43 1.61 1.71 1.64 1.48 1.27 1.00 0.90 0.98 1.15 1.32 1.45 1.39 1.15 1.04 1.03 0.89 0.85 0.78 0.70 0.74 0.77 0.83 0.99 1.20 1.45 1.74 2.07 2.40 2.74
0.82 0.77 0.79 0.89 1.01 1.04 1.13 1.16 1.20 1.37 1.61 1.69 1.63 1.27 1.06 0.97 1.14 1.35 1.41 1.51 1.40 1.30 1.31 1.35 1.06 0.93 0.80 0.77 0.84 0.78 0.82 0.90 1.01 1.19 1.45 1.71 1.99 2.34
0.87 0.81 0.75 0.79 0.91 1.06 1.14 1.10 1.03 1.10 1.34 1.53 1.70 1.50 1.28 1.30 1.55 1.77 1.87 1.90 1.67 1.52 1.46 1.63 1.33 1.08 0.95 0.88 0.89 0.80 0.77 0.82 0.89 0.99 1.18 1.41 1.64 1.94
0.91 0.85 0.75 0.71 0.88 1.04 1.03 1.01 0.94 0.99 1.11 1.30 1.45 1.51 1.51 1.66 1.94 2.31 2.46 2.44 2.18 1.84 1.60 1.60 1.56 1.42 1.35 1.24 1.11 0.97 0.83 0.78 0.82 0.89 1.00 1.17 1.40 1.75
0.92 0.88 0.94 0.91 0.99 1.01 0.93 0.99 1.07 0.98 0.94 0.98 1.02 1.08 1.13 1.27 1.66 2.08 2.36 2.44 2.22 2.11 1.82 1.60 1.64 1.67 1.97 1.77 1.39 1.10 0.94 0.89 0.86 0.86 0.91 0.96 1.14 1.32
0.94 0.94 0.89 1.02 1.04 1.00 0.98 0.97 1.13 1.06 0.97 1.04 1.02 0.96 0.95 1.06 1.22 1.54 2.01 2.33 2.31 2.09 1.84 1.81 1.94 1.67 1.79 1.86 1.62 1.29 1.00 0.90 0.84 0.88 0.91 0.90 0.95 1.02
0.92 0.85 0.83 0.98 1.03 1.06 1.03 1.06 1.12 1.12 1.05 1.05 0.98 0.91 0.92 1.01 1.14 1.32 1.58 1.88 2.00 1.90 1.72 1.83 2.16 1.85 1.61 1.50 1.48 1.45 1.17 0.99 0.85 0.82 0.81 0.96 1.02 1.02
1.01 1.04 0.99 1.07 1.11 1.03 1.00 1.03 1.02 0.97 1.04 1.06 0.95 0.82 0.80 0.90 1.00 1.09 1.20 1.42 1.63 1.68 1.68 1.75 1.97 1.97 1.78 1.53 1.24 1.20 1.22 1.23 1.02 0.88 0.82 0.81 0.80 0.83
1.15 1.13 1.14 1.16 1.12 1.07 1.00 0.91 0.84 0.86 0.94 0.96 0.90 0.80 0.72 0.77 0.88 0.98 1.09 1.22 1.48 1.61 1.66 1.78 2.00 2.18 2.08 1.53 1.26 1.10 0.99 1.23 1.20 1.01 0.90 0.85 0.77 0.67
1.25 1.29 1.23 1.19 1.18 1.07 0.92 0.81 0.78 0.82 0.86 0.82 0.82 0.83 0.79 0.78 0.80 0.88 1.06 1.17 1.35 1.45 1.60 1.86 2.10 2.18 2.19 1.93 1.60 1.21 0.95 0.96 1.05 1.02 0.97 0.95 0.91 0.77
1.27 1.26 1.10 0.96 0.93 0.88 0.82 0.77 0.74 0.72 0.71 0.74 0.79 0.80 0.79 0.80 0.82 0.84 0.97 1.14 1.26 1.32 1.38 1.58 1.95 2.22 2.37 2.35 1.88 1.36 1.07 1.00 1.11 1.11 1.00 0.96 1.01 0.92
1.07 0.96 0.86 0.80 0.77 0.74 0.70 0.69 0.68 0.64 0.63 0.69 0.74 0.75 0.73 0.78 0.83 0.85 0.92 1.05 1.16 1.25 1.34 1.44 1.69 2.01 2.15 2.26 2.25 1.68 1.25 1.11 1.21 1.36 1.22 0.97 0.89 0.91
0.82 0.80 0.78 0.76 0.78 0.79 0.76 0.73 0.68 0.67 0.67 0.65 0.66 0.67 0.71 0.78 0.82 0.81 0.86 0.97 1.07 1.16 1.28 1.38 1.57 1.79 1.91 1.84 1.91 1.92 1.73 1.37 1.23 1.39 1.39 1.19 1.04 1.10
0.75 0.74 0.74 0.76 0.81 0.82 0.77 0.73 0.70 0.66 0.62 0.61 0.60 0.59 0.62 0.71 0.74 0.72 0.78 0.89 0.97 1.06 1.14 1.24 1.41 1.59 1.75 1.77 1.67 1.64 1.82 1.82 1.43 1.30 1.36 1.36 1.29 1.28
0.74 0.76 0.74 0.76 0.80 0.82 0.79 0.74 0.72 0.68 0.63 0.60 0.58 0.56 0.57 0.63 0.68 0.69 0.75 0.81 0.84 0.92 1.03 1.15 1.29 1.48 1.69 1.80 1.70 1.54 1.66 1.87 1.86 1.61 1.43 1.31 1.28 1.24
0.78 0.80 0.79 0.78 0.77 0.78 0.78 0.74 0.70 0.67 0.64 0.61 0.57 0.56 0.58 0.61 0.62 0.67 0.72 0.75 0.80 0.85 0.95 1.12 1.26 1.40 1.60 1.73 1.73 1.58 1.52 1.63 1.67 1.64 1.72 1.49 1.09 0.84